User: anonymous   Login
Location: Unspecified
(0.0000°N, 0.0000°E)
Time: 09:37:28
(UTC+00:00)
Language:

GEOEYE 1 - Orbit

View from above orbital plane
View from above orbital plane
View from above satellite
View from above satellite

Ground track
Ground track

The orbit data is extracted from the following two-line orbital elements,

1 33331U 08042A   14294.74083458  .00000674  00000-0  13687-3 0  7292
2 33331 098.1277 008.0801 0010860 073.9174 286.3210 14.64221897327235
Epoch (UTC): 21 October 2014 17:46:48
Eccentricity: 0.0010860
inclination: 98.1277°
perigee height: 672 km
apogee height: 687 km
right ascension of ascending node: 8.0801°
argument of perigee: 73.9174°
revolutions per day: 14.64221897
mean anomaly at epoch: 286.3210°
orbit number at epoch: 32723

The dashed part of the orbit path shows where the satellite is in the earth's shadow,  

DLR